Home   Weather   43°09'N, 88°01'W   Past weeks
Flag for USA

Past Weather in 43°09'N, 88°01'W, USA — Yesterday and Last 2 Weeks

Now
61 °F

Sunny.


Feels Like: 61 °F
Forecast: 61 / 46 °F
Wind: 14 mph from South

Location: Milwaukee / Timmerman

Current Time: Oct 19, 2019 at 12:34:24 pm

Latest Report: Oct 19, 2019 at 11:45 am


Visibility: 10 mi

Pressure: 29.78 "Hg

Humidity: 45%

Dew Point: 39 °F

Location of 43°09'N, 88°01'WLocation

Past Weather in 43°09'N, 88°01'W — Graph

°F

43°09'N, 88°01'W Temperature Yesterday

Maximum temperature yesterday: 55 °F (at 1:45 pm)
Minimum temperature yesterday: 32 °F (at 2:55 am)
Average temperature yesterday: 41 °F

High & Low Weather Summary for the Past Weeks

 TemperatureHumidityPressure
High70 °F (Oct 9, 12:45 pm)100% (Oct 18, 2:55 am)30.45 "Hg (Oct 18, 2:55 am)
Low32 °F (Oct 14, 4:55 am)29% (Oct 9, 1:45 pm)29.67 "Hg (Oct 15, 2:45 pm)
Average47 °F73%30.01 "Hg
* Reported Oct 4 10:45 am — Oct 19 10:45 am, 43°09'N, 88°01'W. Weather by CustomWeather, © 2019

Note: Actual official high and low records may vary slightly from our data, if they occured in-between our weather recording intervals... More about our weather records

Advertising

43°09'N, 88°01'W Weather History for the Previous 24 Hours

Scroll right to see more
 ConditionsComfort  
Time TempWeatherWind HumidityBarometerVisibility
10:45 am
Sat, Oct 19
55 °FSunny.8 mph55%29.81 "Hg10 mi
9:45 am52 °FSunny.13 mph62%29.82 "Hg10 mi
8:45 am50 °FSunny.9 mph62%29.83 "Hg10 mi
7:45 am46 °FSunny.12 mph71%29.83 "Hg10 mi
7:15 am46 °FSunny.8 mph66%29.84 "Hg10 mi
6:55 am46 °FClear.9 mph66%29.85 "Hg10 mi
6:35 am46 °FClear.8 mph71%29.85 "Hg10 mi
6:15 am46 °FClear.7 mph71%29.85 "Hg10 mi
5:55 am45 °FClear.7 mph76%29.85 "Hg10 mi
5:35 am46 °FClear.7 mph71%29.85 "Hg10 mi
5:15 am45 °FClear.8 mph76%29.85 "Hg10 mi
4:55 am45 °FClear.6 mph76%29.86 "Hg10 mi
4:35 am45 °FClear.6 mph71%29.86 "Hg10 mi
4:15 am45 °FClear.6 mph76%29.86 "Hg10 mi
3:55 am45 °FClear.6 mph76%29.86 "Hg10 mi
3:35 am45 °FClear.6 mph71%29.86 "Hg10 mi
3:15 am43 °FClear.5 mph81%29.87 "Hg10 mi
2:55 am45 °FClear.No wind76%29.87 "Hg10 mi
2:35 am45 °FClear.5 mph76%29.88 "Hg10 mi
2:15 am45 °FClear.No wind76%29.87 "Hg10 mi
1:35 am45 °FClear.6 mph76%29.86 "Hg10 mi
1:15 am45 °FClear.5 mph76%29.87 "Hg10 mi
12:55 am43 °FClear.No wind76%29.88 "Hg10 mi
12:35 am45 °FClear.3 mph76%29.88 "Hg10 mi
12:15 am46 °FClear.5 mph71%29.88 "Hg10 mi
11:55 pm
Fri, Oct 18
46 °FClear.No wind71%29.89 "Hg10 mi
11:35 pm46 °FClear.3 mph71%29.89 "Hg10 mi
11:15 pm46 °FClear.5 mph71%29.90 "Hg10 mi
10:55 pm46 °FClear.6 mph71%29.90 "Hg10 mi
10:35 pm46 °FClear.6 mph71%29.91 "Hg10 mi
10:15 pm45 °FClear.7 mph76%29.91 "Hg10 mi
9:35 pm46 °FClear.6 mph71%29.91 "Hg10 mi
9:15 pm46 °FClear.6 mph71%29.91 "Hg10 mi
8:55 pm46 °FClear.6 mph71%29.91 "Hg10 mi
7:45 pm48 °FClear.8 mph66%29.92 "Hg10 mi
6:45 pm48 °FClear.7 mph66%29.91 "Hg10 mi
5:45 pm52 °FSunny.9 mph62%29.93 "Hg10 mi
4:45 pm54 °FSunny.12 mph58%29.95 "Hg10 mi
3:45 pm55 °FSunny.10 mph55%29.96 "Hg10 mi
2:45 pm55 °FSunny.10 mph51%29.98 "Hg10 mi
1:45 pm55 °FSunny.8 mph51%30.00 "Hg10 mi
12:45 pm54 °FSunny.12 mph54%30.03 "Hg10 mi
Weather by CustomWeather, © 2019

See weather overview